Volver al catálogo

DELTA 1 DEB

ActivoLEO
NORAD 39100·DEBRIS·🇺🇸 United States

Lanzado Jul 14, 1977 desde Cape Canaveral Space Force Station

Loading…

Próximos Pases (próximas 24 horas)

TLE

ActualizadoSource: Space-Track

Época: Sep 14, 2026, 03:18 UTC

1 39100U 77065GM  26257.13805468  .00005280  00000-0  38928-3 0  9993
2 39100  29.2743 247.8122 0327016 209.6443 148.5245 14.67198028745196

Sigue DELTA 1 DEB en tiempo real con AllMySat

Download on the App Store